INMARSAT 3-F2 (24307 NORAD) Tracking and Keplerian Element Data

This shows tracking and keplerian element data for the satellite.

Feedback or suggestion? Click here.




ElementValue
Catalog24307
NameINMARSAT 3-F2
Epoch Orbit10393
Epoch Day34.45648492
Epoch Year2025
RAAN58.8258
Inclination8.7192
Eccentricity0.0004906
Argument of Perigee261.4119
Mean Anonmoly273.4182
Mean Motion0.99987415
Decay Rate-2.62E-06
L11 24307U 96053A 25034.45648492 -.00000262 00000+0 00000+0 0 9994
L22 24307 8.7192 58.8258 0004906 261.4119 273.4182 0.99987415103939



Live tracking and technical data element details for INMARSAT 3-F2 (NORAD 24307). INMARSAT 3-F2 can be tracked NOW for your location showing map with azimuth and elevation plus other details from your city location.







IsCatalogInMostPopularTable: catalog: 24307, numindb: 434
Update: records affected: 1



GetName: 24307 INMARSAT 3-F2

Hit Count: updated at: Sat, 17 May 2025 09:48:38 GMT